User: anonymous   Login
Location: Unspecified
(0.0000°N, 0.0000°E)
Time: 12:01:13
(UTC+00:00)
Language:

APRIZESAT 5 - Orbit

View from above orbital plane
View from above orbital plane
View from above satellite
View from above satellite

Ground track
Ground track

The orbit is defined by the following mean orbital elements,

1 37792U          26144.76650955 +.00000000 +00000-0 +10829-3 0 00004
2 37792  98.2450  77.1453 0053660  78.4225 282.3004 14.81015560    03
Epoch (UTC): 24 May 2026 18:23:46
Eccentricity: 0.0053660
inclination: 98.2450°
perigee height: 589 km
apogee height: 664 km
right ascension of ascending node: 77.1453°
argument of perigee: 78.4225°
revolutions per day: 14.81015560
mean anomaly at epoch: 282.3004°

The dashed part of the orbit path shows where the satellite is in the earth's shadow,  

DLR